Total_Precipitation_Accumulation
2.55 2.59 2.45 2.49 2.45 2.67 3.12 3.67 3.60 3.77 3.70 3.32 2.82 2.65 2.67 2.51 2.47 2.42 2.06 2.13 2.35 2.39 2.45 2.47 2.44 2.40 2.42 2.31 2.12 1.95 1.71 1.56 1.36 1.10 0.92 0.85 0.92 0.90 0.74 0.63 0.56 0.46 0.39
2.37 2.34 2.30 2.50 2.54 2.47 2.63 3.08 3.25 3.63 3.60 3.22 2.68 2.44 2.39 2.44 2.33 2.32 2.08 2.12 2.25 2.11 2.15 2.45 2.70 2.80 2.71 2.56 2.41 2.21 1.96 1.78 1.52 1.20 1.04 0.94 0.79 0.78 0.81 0.70 0.62 0.50 0.40
2.05 2.04 2.14 2.16 2.23 2.14 2.21 2.42 2.65 2.91 2.88 2.74 2.64 2.52 2.40 2.31 2.14 2.16 2.21 2.14 1.89 1.97 2.10 2.26 2.50 2.66 2.83 2.96 2.86 2.60 2.33 1.96 1.61 1.28 1.04 0.88 0.77 0.67 0.63 0.64 0.63 0.56 0.42
1.55 1.66 1.71 1.68 1.71 1.58 1.69 2.02 2.10 2.33 2.57 2.65 2.74 2.51 2.35 2.39 2.19 2.16 2.13 2.14 2.16 1.89 2.15 2.23 2.29 2.33 2.66 3.01 3.14 3.15 2.78 2.29 1.87 1.57 1.25 0.98 0.82 0.69 0.56 0.52 0.57 0.58 0.46
1.37 1.49 1.63 1.68 1.42 1.42 1.48 1.36 1.75 1.97 2.22 2.34 2.05 2.17 1.99 2.02 1.92 1.69 1.71 1.64 1.89 1.92 2.06 2.02 2.10 2.10 2.40 3.07 3.57 3.76 3.52 2.90 2.29 1.94 1.72 1.40 1.18 0.94 0.72 0.60 0.54 0.51 0.46
1.45 1.62 1.49 1.47 1.33 1.53 1.69 1.74 2.01 1.94 1.88 1.96 1.67 1.87 1.72 1.56 1.57 1.49 1.38 1.46 1.57 1.49 1.75 1.96 2.03 1.77 2.04 2.68 3.31 3.69 3.83 3.61 3.04 2.47 2.21 2.02 1.82 1.41 1.03 0.83 0.69 0.61 0.54
1.58 1.77 1.54 1.80 1.60 1.57 1.63 1.65 1.80 1.80 1.65 1.61 1.96 2.12 1.67 1.26 1.26 1.14 1.13 1.34 1.41 1.45 1.75 2.02 2.09 2.09 1.87 1.77 2.00 2.63 3.34 3.92 3.93 3.34 2.88 2.60 2.43 1.95 1.38 1.16 1.03 0.85 0.75
1.47 1.43 1.73 1.60 1.62 1.74 1.75 1.80 1.91 1.93 1.74 1.66 1.97 2.33 2.06 1.96 1.70 0.98 1.08 1.23 1.31 1.54 1.64 1.65 1.83 2.10 1.89 2.00 1.51 1.52 2.25 2.98 3.77 3.83 3.37 2.93 2.78 2.42 1.88 1.55 1.32 1.15 1.03
1.31 1.39 1.44 1.49 1.70 1.54 1.81 2.00 1.92 2.01 2.01 1.82 1.83 2.17 2.25 2.20 1.84 1.39 1.10 1.08 1.24 1.58 1.64 1.70 1.60 1.77 1.93 2.16 2.06 1.59 1.65 1.88 2.69 3.62 3.78 3.29 2.77 2.42 2.15 2.00 1.80 1.49 1.34
1.28 1.30 1.32 1.51 1.69 1.51 1.89 1.58 1.64 1.90 2.05 1.88 1.79 1.67 1.72 1.88 2.03 1.91 1.56 1.22 1.21 1.38 1.51 1.43 1.44 1.65 1.79 1.88 1.92 1.45 1.19 1.25 1.90 2.87 3.49 3.50 3.05 2.55 2.23 2.20 2.34 2.20 1.82
1.41 1.23 1.33 1.48 1.57 1.49 1.61 1.64 1.92 1.85 1.82 1.81 1.81 1.83 1.89 1.78 1.60 1.73 1.78 1.65 1.50 1.18 1.08 1.15 1.28 1.46 1.51 1.66 1.89 1.49 1.19 1.21 1.38 1.75 2.21 2.60 2.78 2.63 2.41 2.48 2.85 3.09 2.87
1.44 1.34 1.42 1.52 1.48 1.43 1.53 1.57 1.70 1.72 1.82 1.91 1.76 1.66 1.80 1.73 1.64 1.67 1.51 1.47 1.50 1.12 0.96 0.97 1.08 1.29 1.39 1.53 1.49 1.30 1.32 1.51 1.49 1.42 1.44 1.62 1.96 2.22 2.32 2.46 2.78 3.26 3.53
1.29 1.32 1.44 1.64 1.57 1.58 1.58 1.70 1.70 1.66 1.74 1.79 1.66 1.54 1.51 1.39 1.49 1.60 1.65 1.45 1.35 1.04 1.06 0.95 1.00 1.11 1.12 1.47 1.76 1.73 1.52 1.59 1.50 1.40 1.38 1.37 1.48 1.69 1.80 1.96 2.30 2.71 3.13
1.37 1.30 1.41 1.46 1.49 1.56 1.56 1.88 1.69 1.59 1.64 1.62 1.46 1.66 1.57 1.27 1.30 1.43 1.62 1.77 1.61 1.33 1.30 1.18 1.12 1.19 1.23 1.43 1.71 1.84 1.53 1.50 1.32 1.22 1.19 1.17 1.18 1.26 1.37 1.47 1.59 1.77 2.00
1.48 1.41 1.34 1.35 1.42 1.54 1.68 1.81 1.70 1.69 1.75 1.56 1.48 1.62 1.50 1.31 1.26 1.22 1.47 1.78 1.96 1.76 1.56 1.43 1.36 1.36 1.39 1.44 1.62 1.51 1.54 1.52 1.35 1.22 1.12 1.05 1.03 0.99 1.00 1.08 1.17 1.20 1.24
1.35 1.41 1.41 1.37 1.45 1.53 1.67 1.79 1.81 1.90 1.94 1.77 1.66 1.67 1.55 1.39 1.46 1.31 1.38 1.65 1.85 1.99 1.81 1.35 1.38 1.37 1.46 1.35 1.56 1.46 1.52 1.54 1.34 1.23 1.11 1.05 1.01 0.98 0.98 1.00 1.06 1.14 1.18
1.37 1.40 1.44 1.47 1.48 1.52 1.67 1.76 1.65 1.85 1.97 2.01 1.83 1.73 1.67 1.68 1.68 1.54 1.56 1.65 1.71 1.92 1.90 1.53 1.48 1.60 1.71 1.61 1.65 1.59 1.48 1.50 1.37 1.30 1.13 1.05 1.00 0.97 1.00 0.98 0.99 0.99 1.04
1.48 1.47 1.51 1.60 1.58 1.60 1.70 1.65 1.52 1.61 1.80 2.01 2.19 2.24 2.02 1.95 1.92 1.75 1.72 1.70 1.73 1.88 1.93 1.82 1.72 1.79 1.82 1.75 1.72 1.52 1.28 1.20 1.25 1.37 1.28 1.14 1.07 1.00 0.96 0.95 0.96 0.94 0.95
1.69 1.72 1.76 1.71 1.71 1.73 1.68 1.61 1.60 1.65 1.77 1.85 2.05 2.23 2.22 2.30 2.09 2.02 1.92 1.83 1.79 1.77 1.92 1.86 1.73 1.91 1.93 1.91 1.79 1.46 1.32 1.34 1.20 1.37 1.37 1.17 1.05 1.00 0.94 0.89 0.87 0.88 0.88
1.89 1.89 1.91 1.84 1.80 1.84 1.80 1.75 1.72 1.72 1.79 1.80 1.83 1.89 2.01 2.25 2.24 2.23 2.08 2.06 2.07 2.06 2.11 2.04 1.95 2.06 2.22 2.25 2.08 1.71 1.54 1.48 1.35 1.20 1.28 1.17 1.10 1.05 0.97 0.91 0.86 0.83 0.83
2.01 2.11 2.07 1.98 1.94 1.95 1.80 1.87 2.03 2.03 2.10 1.96 1.87 1.81 1.79 2.03 2.12 2.12 1.91 1.98 2.13 2.18 2.21 2.18 2.16 2.21 2.26 2.38 2.11 1.85 1.66 1.63 1.56 1.37 1.29 1.13 1.09 1.04 1.05 1.07 1.02 0.93 0.86
2.30 2.20 2.10 2.10 2.09 1.90 2.01 2.06 1.98 2.04 2.22 2.22 2.11 2.04 1.93 1.88 1.87 1.90 1.93 1.97 2.03 2.03 2.06 2.10 2.07 2.10 2.17 2.28 2.38 2.19 1.94 1.77 1.62 1.44 1.44 1.29 1.22 1.16 1.05 0.97 1.07 1.03 0.94
2.31 2.20 2.19 2.22 2.16 2.19 2.15 1.92 1.78 1.79 1.87 1.98 2.06 2.05 1.84 1.71 1.84 1.78 1.94 1.97 1.83 1.76 1.73 1.81 1.84 1.90 2.27 2.52 2.73 2.45 2.20 1.99 1.75 1.62 1.57 1.37 1.26 1.16 1.04 1.00 1.11 0.98 0.90
2.23 2.20 2.19 2.09 2.03 1.98 1.98 1.76 1.71 1.65 1.63 1.61 1.74 1.84 1.81 1.72 1.72 1.77 1.73 1.56 1.44 1.44 1.44 1.36 1.41 1.62 1.98 2.45 2.70 2.69 2.64 2.40 2.13 1.78 1.55 1.35 1.14 1.07 1.00 0.99 1.11 1.04 0.93
2.11 2.01 1.92 1.88 1.84 1.88 2.00 1.78 1.70 1.62 1.66 1.56 1.55 1.55 1.55 1.46 1.54 1.57 1.48 1.33 1.24 1.21 1.25 1.25 1.24 1.39 1.63 1.94 2.31 2.47 2.40 2.21 1.89 1.53 1.35 1.22 1.09 1.09 1.04 0.97 0.99 1.11 1.01
2.24 2.19 2.06 1.99 1.94 1.91 2.04 1.81 1.67 1.58 1.64 1.61 1.60 1.61 1.67 1.48 1.38 1.26 1.20 1.21 1.08 1.02 1.12 1.10 1.08 1.14 1.25 1.49 1.88 1.98 1.98 1.99 1.79 1.53 1.26 1.22 1.13 1.23 1.17 1.00 0.93 0.96 0.97